Terug naar catalogus

INTELSAT 705

ActiefCommunicatieGEO
NORAD 23528·PAYLOAD· XX

Gelanceerd Mar 22, 1995 vanaf Cape Canaveral Space Force Station

Loading…

TLE

VersSource: Space-Track

Epoch: Sep 14, 2026, 08:15 UTC

1 23528U 95013A   26257.34440499 -.00000065  00000-0  00000-0 0  9999
2 23528  11.8775  37.0228 0021386 122.0031 233.2797  0.98971637114416

Volg INTELSAT 705 in realtime met AllMySat

Download on the App Store